[[{"header":{"parameterUnit":"m.s-1","parameterCategory":1,"la1":30.2991,"la2":30.254,"lo1":-89.0895,"lo2":-89.0444,"dy":0.0017,"dx":0.0017,"nx":28,"ny":28,"refTime":"2024-05-21T03:00:00:Z","depth":0,"parameterNumber":2,"parameterNumberName":"U-component_of_WINDS"},"data":[0,0,0,0,0,0,0,0,0,0,0,0,0,0,0,0,0,0,0,0,0,0,0,0,0,0,0,0,0,0,0,0,0,0,0,0,0,0,0,0,0,0,0,0,0,0,0,0,0,0,0,0,0,0,0,0,0,0,-2.3767,-2.3767,0,-2.3794,-2.3794,-2.3795,-2.3767,-2.3766,-2.3765,-2.3764,-2.3792,-2.3794,-2.3796,0,0,0,0,0,0,0,0,0,0,0,0,0,-2.3691,-2.3692,-2.3767,-2.3767,-2.3767,-2.3794,-2.3794,-2.3795,-2.3767,-2.3766,-2.3765,-2.3764,-2.3792,-2.3794,-2.3796,0,0,0,0,0,0,0,0,0,0,0,0,0,-2.3722,-2.3693,-2.3767,-2.3757,-2.3756,-2.3794,-2.3794,-2.3795,-2.3768,-2.3766,-2.3764,-2.3763,-2.3791,-2.3794,-2.3796,-2.3845,0,0,-2.3804,-2.3806,0,0,0,0,0,0,0,0,-2.372,-2.3724,-2.3758,-2.3758,-2.3757,-2.3776,-2.3778,-2.3812,-2.3768,-2.3763,-2.3764,-2.3762,-2.3788,-2.3791,-2.38,-2.3846,-2.3848,-2.3805,-2.3806,-2.3807,-2.3808,0,0,0,0,0,0,0,-2.3718,-2.3723,-2.3777,-2.3758,-2.3758,-2.3751,-2.3754,-2.3784,-2.3785,-2.3764,-2.3762,-2.3765,-2.3788,-2.3797,-2.38,-2.3848,-2.3805,-2.3807,-2.3809,-2.381,-2.3936,-2.3938,0,0,0,0,0,0,-2.3717,-2.3721,-2.3777,-2.3778,-2.3734,-2.3754,-2.3757,-2.3771,-2.3784,-2.3785,-2.3767,-2.3764,-2.3793,-2.3797,-2.3801,-2.3859,-2.3807,-2.381,-2.3811,-2.3934,-2.3936,-2.3938,0,0,0,0,0,0,-2.3715,-2.3722,-2.3775,-2.3749,-2.3756,-2.3757,-2.3773,-2.3773,-2.3782,-2.3786,-2.3786,-2.3776,-2.3792,-2.3797,-2.3834,-2.3859,-2.3811,-2.3813,-2.3932,-2.3935,-2.3937,-2.3975,0,0,0,0,0,0,-2.3713,-2.3721,-2.374,-2.375,-2.3757,-2.3808,-2.3775,-2.3774,-2.3787,-2.3783,-2.3796,-2.3796,-2.3791,-2.383,-2.3837,-2.3862,-2.3815,-2.393,-2.3933,-2.3937,-2.3971,-2.3978,-2.3984,0,0,0,0,0,-2.371,-2.3749,-2.3741,-2.3748,-2.378,-2.381,-2.3814,-2.3808,-2.3789,-2.3807,-2.381,-2.3796,-2.3856,-2.3834,-2.3841,-2.3868,-2.3928,-2.3932,-2.3936,-2.3968,-2.3977,-2.3984,0,0,0,0,0,0,-2.3742,-2.375,-2.3741,-2.3784,-2.3797,-2.3805,-2.3828,-2.3817,-2.3835,-2.3831,-2.3823,-2.3826,-2.3865,-2.387,-2.3846,-2.3916,-2.3889,-2.3894,-2.3911,-2.3919,-2.3925,-2.3923,-2.3818,0,0,0,0,0,-2.3754,-2.3777,-2.3783,-2.3821,-2.3828,-2.3827,-2.384,-2.3834,-2.3846,-2.3851,-2.3857,-2.3869,-2.3891,-2.3905,-2.3925,-2.3972,-2.3974,-2.3994,-2.4,-2.4005,-2.401,-2.4035,-2.4044,-2.3951,-2.3951,-2.3951,0,0,-2.3779,-2.3786,-2.3802,-2.3827,-2.3836,-2.386,-2.3831,-2.3858,-2.3876,-2.3855,-2.389,-2.3895,-2.3908,-2.395,-2.3969,-2.3956,-2.4036,-2.4011,-2.4015,-2.4017,-2.404,-2.4049,-2.4057,-2.3954,-2.3954,-2.3953,0,0,-2.3837,-2.3845,-2.3877,-2.3886,-2.39,-2.3899,-2.3907,-2.3918,-2.392,-2.3955,-2.394,-2.3961,-2.3999,-2.4009,-2.4019,-2.4081,-2.4068,-2.4088,-2.4122,-2.4147,-2.4154,-2.416,-2.4182,-2.419,-2.4093,-2.4093,-2.4093,0,-2.3866,-2.3902,-2.3895,-2.3923,-2.3935,-2.3917,-2.395,-2.3959,-2.3979,-2.3987,-2.3972,-2.4019,-2.4027,-2.4071,-2.4086,-2.4095,-2.4104,-2.4086,-2.4153,-2.416,-2.4166,-2.4186,-2.4195,-2.4095,-2.4095,-2.4095,-2.4095,0,-2.3937,-2.3962,-2.3987,-2.4006,-2.4021,-2.4051,-2.4049,-2.4064,-2.4058,-2.4059,-2.4095,-2.4104,-2.4125,-2.4136,-2.4129,-2.4179,-2.417,-2.4155,-2.4127,-2.4177,-2.4196,-2.4204,-2.4099,-2.4098,-2.4097,-2.4097,0,0,-2.4015,-2.4031,-2.404,-2.4048,-2.4062,-2.4081,-2.4111,-2.4132,-2.4146,-2.416,-2.4184,-2.4217,-2.4202,-2.4214,-2.4209,-2.423,-2.4279,-2.4212,-2.4212,-2.4224,-2.4334,-2.4345,-2.4354,-2.4271,-2.4272,-2.4273,-2.4332,0,-2.4073,-2.4124,-2.4119,-2.4167,-2.419,-2.4174,-2.42,-2.4211,-2.4213,-2.4233,-2.4236,-2.4259,-2.4238,-2.4245,-2.4265,-2.4268,-2.4301,-2.4264,-2.4293,-2.4294,-2.429,-2.4365,-2.4377,-2.4432,-2.434,-2.4341,-2.4342,0,-2.4148,-2.4164,-2.4215,-2.4226,-2.4235,-2.4258,-2.4277,-2.4297,-2.4309,-2.4309,-2.4323,-2.4314,-2.4343,-2.4316,-2.4357,-2.4332,-2.4344,-2.4347,-2.4349,-2.4351,-2.4321,-2.4368,-2.445,-2.4458,-2.4354,-2.4353,-2.4352,0,-2.4199,-2.4235,-2.4269,-2.4277,-2.429,-2.4307,-2.4313,-2.4324,-2.4337,-2.4354,-2.4363,-2.4383,-2.4394,-2.441,-2.4407,-2.4387,-2.4448,-2.4421,-2.4449,-2.4449,-2.4462,-2.4461,-2.4546,-2.4471,-2.447,-2.447,-2.447,0,-2.4264,-2.4296,-2.4293,-2.4314,-2.4349,-2.4343,-2.4378,-2.4382,-2.4392,-2.4414,-2.4402,-2.4423,-2.4418,-2.4438,-2.4436,-2.447,-2.4476,-2.4476,-2.4475,-2.4477,-2.4477,-2.4484,-2.448,-2.4472,-2.4472,-2.4472,-2.4471,0,-2.4327,-2.4327,-2.4363,-2.4373,-2.4376,-2.4401,-2.4409,-2.443,-2.4431,-2.4459,-2.4465,-2.4467,-2.4491,-2.449,-2.4517,-2.4515,-2.4557,-2.4552,-2.4553,-2.4552,-2.458,-2.4577,-2.4672,-2.4684,-2.4601,-2.4602,-2.4603,0,-2.4369,-2.4393,-2.4405,-2.4418,-2.4426,-2.4448,-2.4461,-2.4456,-2.4471,-2.4487,-2.4506,-2.4528,-2.4546,-2.4586,-2.4589,-2.461,-2.4605,-2.4637,-2.4608,-2.4609,-2.4605,-2.4603,-2.4606,-2.4642,-2.4643,-2.4644,-2.4645,0,-2.4442,-2.444,-2.446,-2.448,-2.4496,-2.4511,-2.4525,-2.4537,-2.4533,-2.455,-2.4574,-2.4588,-2.4616,-2.4639,-2.4659,-2.4665,-2.4655,-2.4654,-2.4661,-2.4663,-2.4663,-2.4663,-2.4568,-2.4651,-2.4651,-2.465,-2.465,-2.465,-2.4495,-2.4516,-2.4527,-2.455,-2.4559,-2.4573,-2.4592,-2.4596,-2.4616,-2.4638,-2.4634,-2.4661,-2.4673,-2.4699,-2.4708,-2.4729,-2.4718,-2.4729,-2.4731,-2.4734,-2.4737,-2.466,-2.4733,-2.4732,-2.4732,-2.4732,-2.4732,0,-2.4568,-2.4574,-2.4595,-2.4615,-2.4632,-2.462,-2.4635,-2.4651,-2.4675,-2.4687,-2.4705,-2.4733,-2.4755,-2.4761,-2.4782,-2.4798,-2.4794,-2.4804,-2.4802,-2.4804,-2.4746,-2.4737,-2.4807,-2.4807,-2.4807,-2.4807,-2.4807,-2.4807,-2.4607,-2.4641,-2.4641,-2.468,-2.4686,-2.4713,-2.4722,-2.4735,-2.4744,-2.4776,-2.4794,-2.4798,-2.4808,-2.483,-2.4849,-2.4851,-2.4859,-2.4871,-2.487,-2.4816,-2.4808,-2.4801,-2.4793,-2.4873,-2.4873,-2.4926,-2.4927,-2.4927]},{"header":{"parameterUnit":"m.s-1","parameterCategory":1,"la1":30.2991,"la2":30.254,"lo1":-89.0895,"lo2":-89.0444,"dy":0.0017,"dx":0.0017,"nx":28,"ny":28,"refTime":"2024-05-21T03:00:00:Z","depth":0,"parameterNumber":3,"parameterNumberName":"V-component_of_WINDS"},"data":[0,0,0,0,0,0,0,0,0,0,0,0,0,0,0,0,0,0,0,0,0,0,0,0,0,0,0,0,0,0,0,0,0,0,0,0,0,0,0,0,0,0,0,0,0,0,0,0,0,0,0,0,0,0,0,0,0,0,1.9198,1.9198,0,1.9145,1.9144,1.9144,1.9096,1.9096,1.9095,1.9094,1.9036,1.9035,1.9034,0,0,0,0,0,0,0,0,0,0,0,0,0,1.9256,1.9255,1.9198,1.9197,1.9197,1.9145,1.9144,1.9144,1.9096,1.9095,1.9095,1.9094,1.9036,1.9035,1.9034,0,0,0,0,0,0,0,0,0,0,0,0,0,1.9219,1.9255,1.9198,1.9167,1.9164,1.9145,1.9144,1.9143,1.9096,1.9095,1.9095,1.9094,1.9037,1.9035,1.9033,1.904,0,0,1.9029,1.9028,0,0,0,0,0,0,0,0,1.9222,1.9217,1.9172,1.9169,1.9165,1.9126,1.9143,1.9109,1.9097,1.9122,1.9094,1.9093,1.9066,1.9062,1.9054,1.9037,1.9035,1.9028,1.9028,1.9027,1.9026,0,0,0,0,0,0,0,1.9224,1.9219,1.9177,1.9172,1.9167,1.9155,1.9149,1.9136,1.9099,1.9119,1.9116,1.9111,1.9064,1.9056,1.9052,1.9034,1.9029,1.9027,1.9026,1.9026,1.9022,1.9023,0,0,0,0,0,0,1.9232,1.9222,1.9179,1.9175,1.9192,1.9154,1.9148,1.914,1.9099,1.9092,1.9111,1.9109,1.9059,1.9054,1.905,1.9056,1.9027,1.9025,1.9024,1.9021,1.9022,1.9023,0,0,0,0,0,0,1.9233,1.9229,1.9181,1.9198,1.9191,1.9154,1.9146,1.9139,1.913,1.9093,1.9086,1.911,1.9058,1.9052,1.9044,1.9053,1.9025,1.9023,1.902,1.9021,1.9022,1.9068,0,0,0,0,0,0,1.9235,1.9229,1.9232,1.9198,1.919,1.9176,1.9146,1.9139,1.9128,1.9124,1.9089,1.9083,1.9057,1.9046,1.9042,1.9051,1.9022,1.9019,1.902,1.9022,1.9066,1.9071,1.9075,0,0,0,0,0,1.9237,1.9246,1.9233,1.9228,1.9193,1.9177,1.9172,1.9143,1.9129,1.9131,1.9108,1.9084,1.9053,1.9046,1.9041,1.9049,1.9018,1.902,1.9022,1.9064,1.907,1.9075,0,0,0,0,0,0,1.928,1.9241,1.9225,1.9223,1.9204,1.9169,1.9171,1.9151,1.9134,1.913,1.9094,1.9086,1.9082,1.9064,1.9057,1.9054,1.9032,1.9033,1.9066,1.9072,1.9076,1.9081,1.9021,0,0,0,0,0,1.929,1.9281,1.9247,1.9248,1.924,1.9207,1.9199,1.9179,1.9157,1.9148,1.9123,1.9102,1.9087,1.9078,1.9063,1.9063,1.9055,1.9066,1.9071,1.9075,1.9077,1.9076,1.9081,1.9029,1.9029,1.9029,0,0,1.9309,1.9286,1.9283,1.9256,1.9239,1.9231,1.92,1.9192,1.9185,1.9146,1.9137,1.9119,1.9092,1.9089,1.9085,1.9074,1.9089,1.9078,1.9081,1.908,1.9079,1.9084,1.9088,1.903,1.903,1.903,0,0,1.9339,1.9321,1.9321,1.9305,1.928,1.9258,1.9259,1.9227,1.9214,1.9204,1.9175,1.9166,1.9141,1.9124,1.9112,1.9138,1.9116,1.9134,1.916,1.916,1.9164,1.9167,1.9177,1.9181,1.9136,1.9136,1.9136,0,1.9365,1.9352,1.9323,1.9317,1.9307,1.9273,1.9273,1.9258,1.9228,1.9221,1.9209,1.9179,1.9158,1.9151,1.9158,1.9149,1.9148,1.9138,1.9166,1.9169,1.9172,1.9181,1.9185,1.9138,1.9138,1.9138,1.9137,0,1.9386,1.9378,1.9381,1.9356,1.9345,1.9342,1.9312,1.9305,1.9286,1.9266,1.9257,1.9232,1.9211,1.9208,1.9188,1.9198,1.9191,1.9173,1.915,1.918,1.9188,1.9191,1.9142,1.9141,1.914,1.9139,0,0,1.9441,1.9401,1.9403,1.9392,1.9362,1.9355,1.935,1.9332,1.9327,1.9308,1.9303,1.9284,1.9268,1.9254,1.9232,1.9233,1.9256,1.9214,1.9213,1.9223,1.9266,1.9281,1.9285,1.9241,1.9242,1.9242,1.9268,0,1.9467,1.9459,1.9433,1.9432,1.9424,1.9392,1.9388,1.9369,1.9351,1.9341,1.9319,1.9307,1.9286,1.9278,1.9277,1.9254,1.9264,1.9251,1.9236,1.9236,1.9244,1.9289,1.9304,1.933,1.9271,1.9272,1.9272,0,1.9496,1.9482,1.948,1.9453,1.9448,1.9446,1.9427,1.9418,1.9396,1.9383,1.9369,1.9346,1.9339,1.9318,1.9308,1.93,1.9292,1.928,1.9281,1.9278,1.9256,1.9288,1.9337,1.9342,1.9277,1.9276,1.9276,0,1.9537,1.9517,1.9514,1.9505,1.9473,1.9472,1.9458,1.9435,1.9426,1.941,1.9404,1.9387,1.9377,1.9364,1.9336,1.9324,1.933,1.9307,1.9318,1.9319,1.932,1.9321,1.937,1.9315,1.9315,1.9315,1.9315,0,1.9569,1.957,1.9533,1.9531,1.9531,1.9501,1.9501,1.9484,1.9465,1.9459,1.9429,1.9424,1.9388,1.9378,1.9356,1.9352,1.9347,1.9336,1.933,1.9339,1.9341,1.9333,1.9331,1.9316,1.9316,1.9316,1.9315,0,1.9615,1.959,1.9585,1.9556,1.9548,1.955,1.9524,1.952,1.9501,1.9493,1.949,1.9458,1.9446,1.9417,1.9396,1.9382,1.9383,1.9372,1.9391,1.9387,1.9401,1.94,1.9447,1.9452,1.9394,1.9395,1.9395,0,1.9638,1.9638,1.9609,1.9604,1.9592,1.9583,1.9574,1.9545,1.9537,1.9513,1.9513,1.9499,1.9485,1.9467,1.9441,1.9425,1.9414,1.9432,1.9411,1.9421,1.9415,1.9416,1.9416,1.9436,1.9437,1.9438,1.9438,0,1.968,1.9668,1.9658,1.9643,1.9635,1.9621,1.9606,1.9603,1.957,1.9563,1.9551,1.9541,1.9521,1.9507,1.9487,1.9472,1.945,1.9445,1.9447,1.9456,1.9467,1.9462,1.9404,1.9444,1.9443,1.9443,1.9443,1.9442,1.9715,1.9714,1.9695,1.9684,1.967,1.9658,1.9654,1.9634,1.9624,1.9607,1.959,1.9579,1.9558,1.953,1.9516,1.9507,1.9496,1.9499,1.9499,1.9501,1.9505,1.9469,1.9504,1.9503,1.9503,1.9503,1.9503,0,1.9757,1.9743,1.9734,1.9715,1.9707,1.9689,1.9671,1.9666,1.9658,1.964,1.9629,1.9615,1.9602,1.9576,1.9561,1.9558,1.9548,1.9555,1.9555,1.9552,1.9515,1.9516,1.9564,1.9564,1.9564,1.9564,1.9564,1.9564,1.9778,1.9776,1.9762,1.9753,1.9738,1.973,1.9722,1.9709,1.9696,1.9683,1.9672,1.9656,1.9635,1.9618,1.9605,1.9598,1.9594,1.9605,1.9594,1.956,1.9555,1.9549,1.9549,1.9604,1.9604,1.9632,1.9632,1.9632]}]]